Location: Eaton Estates
(41.3089°N, 82.0057°W)
Time: 08:35:29
(UTC+00:00)

NOSS 2-2 (D) - Pass Details

Date: 17 June 2021
Orbit: 453 x 1754 km, 63.3° (Epoch: 24 July)

Event Time Altitude Azimuth Distance (km) Brightness Sun altitude
Exits shadow 07:18:32 31° 120° (ESE) 815 4.1 -20.5°
Maximum altitude 07:18:36 31° 118° (ESE) 814 4.1 -20.5°
Drops below altitude 10° 07:21:43 10° 54° (NE) 1,626 6.6 -20.2°
Sets 07:24:03 0° 44° (NE) 2,580 8.1 -20.0°
